Location: Edmonton
(53.5500°N, 113.5000°W)
Time: 11:17:09
(UTC-07:00)

Daily predictions for brighter satellites

Satellite Brightness Start Highest point End
(mag) Time Altitude Azimuth Time Altitude Azimuth Time Altitude Azimuth
Cosmos 1500 Rocket 4.3 17:31:19 10° SSE 17:35:11 32° E 17:39:06 10° NNE
Cosmos 2058 4.4 17:34:45 10° SE 17:37:31 18° E 17:40:15 10° NE
Cosmos 468 Rocket 4.1 17:32:31 10° SSW 17:37:42 82° WNW 17:42:53 10° NNE
SPOT 3 Rocket 3.5 17:35:19 10° SSE 17:40:26 71° ENE 17:45:37 10° NNW
Cosmos 2322 4.0 17:36:54 10° SW 17:42:36 74° NW 17:48:21 10° NNE
Cosmos 371 Rocket 3.9 17:39:40 10° S 17:44:07 38° ESE 17:48:34 10° NE
GEOS 3 Rocket 4.1 17:39:39 10° NE 17:44:44 57° NW 17:49:50 10° WSW
SL-16 R/B 3.4 17:39:47 10° WSW 17:45:00 37° NW 17:50:16 10° NNE
SMAP 3.1 17:41:27 10° SSE 17:46:07 83° ENE 17:50:49 10° NNW
Tsikada Rocket 4.1 17:41:10 10° S 17:47:34 81° E 17:54:01 10° NNE
Cosmos 2360 Rocket 2.8 17:49:49 10° SW 17:55:21 57° NW 18:00:55 10° NNE
Lacrosse 5 rocket 3.0 17:53:45 10° WNW 17:57:06 32° SW 18:00:35 10° SSE
Cosmos 1980 Rocket 4.1 17:53:03 10° WNW 17:57:07 20° NNW 18:01:12 10° NNE
Cosmos 2333 4.2 17:51:46 10° SSW 17:57:21 76° ESE 18:02:58 10° NE
Cosmos 1634 Rocket 4.0 17:51:52 10° N 17:58:07 82° E 18:04:16 10° SSE
ATLAS 5 CENTAUR R/B 3.1 17:55:47 10° NW 18:00:37 32° N 18:05:21 12° ENE
Cosmos 1980 4.2 17:55:54 10° S 18:01:11 41° ESE 18:06:29 10° NE
CORIOLIS 4.3 17:55:49 10° SSE 18:01:11 84° WSW 18:06:36 10° NNW
FREGAT/IRIS 4.2 18:01:30 10° ESE 18:03:34 17° ENE 18:05:38 10° NNE
Aureole 2 Rocket 4.0 18:00:34 10° SSE 18:03:46 24° ESE 18:06:40 12° NE
Cosmos 1766 Rocket 4.3 18:00:53 10° SSW 18:05:16 57° WNW 18:09:38 10° N
IDEFIX/ARIANE 42P 3.1 18:00:11 10° S 18:05:22 64° WSW 18:10:37 10° NNW
Cosmos 44 Rocket 3.6 18:00:49 10° SSW 18:05:46 53° SE 18:10:15 12° NE
USA 116 3.1 18:04:44 10° NNE 18:07:58 61° ESE 18:11:02 10° S
Cosmos 372 Rocket 4.1 18:03:24 10° NNW 18:08:32 78° WSW 18:13:37 10° SSE
NOAA 12 4.4 18:04:33 10° SE 18:09:28 42° ENE 18:14:25 10° N
Cosmos 1707 Rocket 4.0 18:06:15 10° N 18:10:17 36° ENE 18:14:18 10° SE
Cosmos 1763 Rocket 3.6 18:05:56 10° SSW 18:11:09 81° WNW 18:16:19 10° NNE
COSMO-SKYMED 1 3.3 18:08:05 10° NNE 18:12:01 32° E 18:15:56 10° SSE
Cosmos 1626 3.7 18:09:36 10° SE 18:12:05 17° E 18:12:55 16° ENE
Timation 1 Rocket 4.4 18:09:30 10° NW 18:15:34 86° WSW 18:21:36 10° SSE
Cosmos 1328 3.7 18:11:56 10° S 18:15:49 63° E 18:19:45 10° NNE
MSX 4.1 18:10:49 10° S 18:16:33 75° WSW 18:22:19 10° NNW
YAOGAN 1 3.2 18:13:11 10° S 18:17:28 60° W 18:21:46 10° NNW
CZ-2C R/B 4.5 18:12:52 10° N 18:17:34 57° WNW 18:22:15 10° SW
Cosmos 1943 Rocket 3.6 18:14:35 10° NNW 18:18:35 20° NNE 18:21:01 15° ENE
Cosmos 2219 Rocket 2.2 18:13:57 10° SSW 18:19:34 76° ESE 18:25:12 10° NE
Cosmos 540 Rocket 3.6 18:14:46 10° S 18:19:46 52° ESE 18:24:48 10° NNE
Cosmos 1726 2.5 18:16:33 10° NNW 18:20:19 67° W 18:24:04 10° S
Cosmos 1455 2.8 18:19:06 10° N 18:22:35 33° ENE 18:26:04 10° SE
Cosmos 2333 Rocket 2.2 18:17:05 10° SSW 18:22:40 65° ESE 18:28:14 10° NE
Cosmos 2151 2.9 18:20:57 10° S 18:25:05 62° E 18:29:15 10° NNE
Cosmos 2084 Rocket 3.9 18:22:29 10° NW 18:26:01 36° NNE 18:27:57 22° E
Cosmos 2278 Rocket 3.4 18:20:42 10° NW 18:26:07 47° WSW 18:31:31 10° S
CZ-4 R/B 3.2 18:22:39 10° SSW 18:26:12 34° W 18:29:49 10° NNW
Cosmos 1674 3.9 18:22:49 10° SSW 18:26:31 44° WNW 18:30:16 10° N
ATLAS 3B R/B 3.6 18:19:53 10° WNW 18:26:34 36° N 18:31:30 16° ENE
Cosmos 2322 Rocket 4.0 18:22:10 10° W 18:26:43 24° NNW 18:31:16 10° NNE
CZ-4C R/B 3.4 18:25:29 10° WNW 18:31:17 37° N 18:35:48 19° ENE
Resurs 01 Rocket 2.5 18:28:20 10° ESE 18:32:09 29° ENE 18:35:59 10° N
Cosmos 1703 3.9 18:28:45 10° SSE 18:32:16 33° E 18:34:49 16° NE
SJ-6B 3.2 18:29:09 10° SE 18:33:03 44° ENE 18:37:02 10° N
USA 215 3.5 18:27:12 10° ESE 18:33:46 75° SSW 18:40:21 10° WNW
Lacrosse 5 2.1 18:30:07 10° W 18:35:08 59° N 18:38:18 22° ENE
COSMOS 2455 4.4 18:33:00 10° WNW 18:37:53 24° NNW 18:42:06 12° NE
Cosmos 1300 4.1 18:38:45 10° NNW 18:42:23 41° W 18:46:00 10° SSW
Cosmos 1151 Rocket 4.4 18:40:28 10° NNW 18:44:30 41° W 18:48:32 10° SSW
Cosmos 2279 Rocket 4.1 18:39:16 10° NNW 18:45:30 78° W 18:51:43 10° S
Cosmos 1242 Rocket 3.5 18:42:34 10° N 18:44:52 26° NE 18:44:52 26° NE
NOSS 3-2 (A) 4.5 18:41:09 10° W 18:47:18 41° NNW 18:52:17 18° NE
Lacrosse 4 Rocket 1.2 18:47:25 10° NW 18:51:31 82° NE 18:54:55 14° SE
Cosmos 783 Rocket 4.5 18:46:30 10° SSW 18:51:47 72° ESE 18:56:19 14° NNE
Blok-2BL 3.2 18:48:36 10° NW 18:51:59 66° NE 18:52:56 42° ESE
NOSS 3-2 (C) 4.5 18:47:48 10° W 18:53:58 43° NNW 18:58:49 19° NE
Cosmos 2369 Rocket 2.7 18:49:14 10° NNW 18:54:37 40° NE 18:56:59 27° E
HJ-1C 3.8 18:56:03 41° ENE 18:56:03 41° ENE 18:59:06 10° N
Cosmos 2237 Rocket 2.1 18:50:47 10° SSW 18:56:25 86° ESE 19:01:01 16° NNE
Cosmos 2242 Rocket 3.6 18:52:40 10° N 18:57:01 54° ENE 19:01:22 10° SSE
Cosmos 921 Rocket 4.3 18:53:36 10° N 18:56:29 23° NE 18:56:29 23° NE
SL-14 R/B 3.7 18:54:13 10° SSW 18:58:09 63° WNW 19:02:10 10° N
Cosmos 1340 Rocket 2.6 18:55:51 10° S 18:59:46 82° ESE 19:02:56 15° NNE
Cosmos 1484 Rocket 4.4 18:56:31 10° SSW 19:00:14 38° W 19:04:02 10° NNW
SKYMED 2 3.5 18:55:55 10° NNE 19:00:19 86° ESE 19:04:40 10° SSW
DNEPR-1 R/B 4.2 18:54:36 10° SW 19:01:01 86° NW 19:04:15 25° NE
Cosmos 44 3.3 18:56:07 10° SW 19:01:18 84° SE 19:03:56 28° NE
DMSP B5D1-3 4.4 18:58:48 10° NNE 19:03:54 69° ESE 19:08:59 10° S
SL-16 R/B 2.4 18:58:47 10° S 19:04:12 51° ESE 19:06:55 28° NE
COSMOS 2428 3.8 18:59:18 10° WSW 19:04:43 42° NW 19:09:52 11° NNE
Cosmos 2056 Rocket 4.3 19:00:37 10° NNW 19:05:09 30° NE 19:05:20 30° NE
Cosmos 1805 Rocket 3.5 19:01:24 10° S 19:05:51 75° E 19:10:19 10° NNE
ALOS 2.3 19:01:46 10° SSE 19:06:20 57° ENE 19:10:56 10° N
Meteor 1-28 Rocket 3.0 19:04:41 23° NNE 19:06:53 77° ESE 19:10:36 10° S
Cosmos 1869 3.2 19:04:36 10° N 19:08:39 65° ENE 19:12:40 10° SSE
CENTAUR R/B 3.1 19:02:41 10° WSW 19:09:06 59° NNW 19:14:05 21° NE
Cosmos 2084 3.4 19:06:11 10° WSW 19:09:59 65° NW 19:11:06 41° NNE
Spot 2 Rocket 3.4 19:05:09 10° SSE 19:10:06 60° ENE 19:15:05 10° N
Thor Agena Rocket 4.3 19:05:03 10° N 19:10:11 54° WNW 19:15:13 10° SW
Nadezhda 4 Rocket 4.0 19:05:58 10° S 19:12:08 64° E 19:18:25 10° NNE
Cosmos 2058 3.4 19:10:00 10° SSW 19:14:02 58° WNW 19:18:06 10° N
USA 229 DEB 4.3 19:10:21 10° S 19:16:19 33° ESE 19:17:14 32° ESE
USA 229 4.3 19:10:28 10° S 19:16:25 33° ESE 19:17:17 32° ESE
Cosmos 1461 3.1 19:13:46 10° SSW 19:17:38 48° SE 19:17:38 48° SE
Iridium 4 Rocket 3.6 19:15:06 10° SSE 19:18:11 39° SE 19:18:11 39° SE
Sich 1 2.9 19:16:25 10° S 19:20:50 72° E 19:22:59 30° NNE
Envisat 4.4 19:26:53 22° NNE 19:26:53 22° NNE 19:29:16 10° N
Cosmos 1538 Rocket 4.0 19:20:08 10° SSW 19:25:24 66° ESE 19:27:24 38° NE
H-2A R/B 4.3 19:31:35 23° N 19:31:35 23° N 19:33:09 10° N
Cosmos 1371 Rocket 4.1 19:24:43 10° NNW 19:29:48 50° ENE 19:29:56 50° ENE
Cosmos 1633 Rocket 2.9 19:25:29 10° S 19:29:53 77° E 19:31:03 48° NNE
SL-16 R/B 4.4 19:27:25 10° NW 19:30:52 16° NNW 19:34:02 11° NNE
Cosmos 1553 Rocket 4.2 19:25:32 10° N 19:31:24 43° ENE 19:31:27 43° ENE
Cosmos 1092 Rocket 3.9 19:27:20 10° S 19:33:37 67° E 19:39:55 10° NNE
NOSS 0 Rocket 4.4 19:28:16 10° SW 19:34:24 58° NW 19:38:44 20° NNE
FENGYUN 3A 3.6 19:29:14 10° SSE 19:34:36 88° WSW 19:40:02 10° NNW
Cosmos 1356 Rocket 3.3 19:30:47 10° SSW 19:34:46 79° WNW 19:35:33 56° N
FREGAT/IRIS 4.1 19:32:09 10° S 19:35:02 38° W 19:37:57 10° NNW
Cosmos 1867 3.5 19:31:14 10° NW 19:36:42 65° NE 19:37:30 57° E
Aureole 2 Rocket 3.8 19:35:12 10° SW 19:39:01 46° WNW 19:40:33 31° N
Cosmos 2360 Rocket 4.2 19:36:30 10° WNW 19:40:35 20° NNW 19:44:09 12° NNE
Cosmos 1980 Rocket 4.3 19:40:51 10° NNW 19:43:28 13° N 19:44:49 12° NNE
Helios 1A 3.9 19:46:56 40° N 19:46:56 40° N 19:49:42 10° NNW
Cosmos 1862 Rocket 3.5 19:41:01 10° NNW 19:45:15 81° NNW 19:45:15 81° NNW
Cosmos 972 Rocket 3.9 19:40:45 10° NNW 19:45:53 77° ENE 19:46:54 59° SE
ATLAS 5 CENTAUR R/B 2.3 19:40:46 10° NW 19:46:21 58° NNE 19:46:56 55° ENE
Aureole 1 Rocket 4.0 19:40:45 10° S 19:46:37 68° ESE 19:50:43 28° NE
Cosmos 1626 2.9 19:43:27 10° SSW 19:47:07 51° WNW 19:47:40 46° NW
Cosmos 44 Rocket 4.3 19:42:38 10° WSW 19:47:29 43° NNW 19:48:59 34° N
COSMO-SKYMED 1 4.0 19:44:14 10° N 19:48:13 37° WNW 19:52:13 10° SW
Cosmos 2195 Rocket 4.3 19:51:39 10° S 19:57:41 66° E 20:03:49 10° NNE
Cosmos 1455 4.4 19:55:01 10° NNW 19:58:12 25° W 20:01:22 10° SW
Cosmos 773 Rocket 3.9 19:57:47 10° SSW 20:02:33 76° SSW 20:02:33 76° SSW
Cosmos 1943 Rocket 2.5 19:58:03 10° NNW 20:02:34 50° NNE 20:02:34 50° NNE
Cosmos 2219 Rocket 3.7 19:59:09 10° W 20:04:05 30° NW 20:07:12 19° N
Cosmos 2333 Rocket 3.6 20:02:13 10° WSW 20:07:21 34° NW 20:10:16 21° N
Cosmos 2263 4.1 20:02:23 10° NNW 20:07:41 76° N 20:07:41 76° N
Resurs 01 Rocket 2.7 20:04:23 11° S 20:08:30 45° W 20:12:47 10° NNW
Resurs 1-3 4.4 20:09:58 45° SW 20:10:40 50° W 20:14:59 10° NNW
Cosmos 2322 Rocket 4.4 20:10:11 10° NW 20:12:57 14° N 20:14:13 13° N
Cosmos 1417 Rocket 4.3 20:08:27 10° N 20:14:42 88° W 20:15:53 61° S
USA 238 DEB 4.3 20:09:53 10° NW 20:16:34 43° NNE 20:16:56 43° NNE
USA 238 4.3 20:10:00 10° NW 20:16:40 43° NNE 20:17:02 43° NNE
Lacrosse 5 2.4 20:13:27 10° WNW 20:17:31 55° NW 20:17:31 55° NW
ATLAS 3B R/B 3.1 20:11:54 10° NW 20:18:46 48° NNE 20:18:46 48° NNE
CZ-4C R/B 2.7 20:14:21 10° NW 20:20:58 64° NE 20:21:00 64° NE
COSMOS 2455 4.3 20:20:54 10° NW 20:25:15 24° N 20:25:15 24° N
Lacrosse 4 Rocket 4.1 20:27:15 10° WNW 20:29:40 15° WSW 20:31:20 12° SW
Cosmos 1627 Rocket 4.5 20:26:02 10° SSW 20:37:29 15° N 20:38:23 10° N
Cosmos 2369 Rocket 2.8 20:33:21 10° NW 20:38:49 52° WSW 20:38:49 52° WSW
Cosmos 2237 Rocket 3.9 20:36:23 10° W 20:41:12 28° NW 20:42:53 24° N
ALOS 4.5 20:40:25 10° SW 20:44:08 23° W 20:47:53 10° NW
S3M 4.3 20:42:08 10° NNW 20:47:55 65° WNW 20:47:55 65° WNW
SL-16 R/B 3.2 20:43:11 10° WSW 20:48:31 41° NW 20:48:50 40° NW
CENTAUR R/B 3.7 20:54:43 10° WNW 21:01:09 39° N 21:01:17 39° N
USA 229 DEB 4.3 20:59:49 10° SW 21:04:43 50° WSW 21:04:43 50° WSW
USA 229 4.3 20:59:55 10° SW 21:04:46 49° WSW 21:04:46 49° WSW
ATLAS 5 CENTAUR R/B 4.0 21:25:33 10° NW 21:28:31 30° WNW 21:28:31 30° WNW
Cosmos 1943 Rocket 4.4 21:42:10 10° NW 21:44:06 20° WNW 21:44:06 20° WNW
CZ-4C R/B 4.3 22:02:59 10° NW 22:06:12 29° WNW 22:06:12 29° WNW
ATLAS 3B R/B 4.4 22:02:59 10° NW 22:06:01 28° NW 22:06:01 28° NW
